Weather History for Lihue, HI

Change the Weather History Date:

Sunday, February 26, 2012

  Actual Average Record
Temperature  
Mean Temperature 70 °F 72 °F  
Max Temperature 73 °F 78 °F 85 °F (1978)
Min Temperature 66 °F 66 °F 56 °F (1957)
Degree Days  
Heating Degree Days 0 0  
Month to date heating degree days 0 0  
Since 1 July heating degree days 0 0  
Cooling Degree Days 5 7  
Month to date cooling degree days 206 182  
Year to date cooling degree days 476 391  
Growing Degree Days 18 (Base 50)    
Moisture  
Dew Point 66 °F    
Average Humidity 94    
Maximum Humidity 100    
Minimum Humidity 87    
Precipitation  
Precipitation 6.37 in 0.12 in 6.39 in (2012)
Month to date precipitation 8.22 2.91  
Year to date precipitation 12.40 6.66  
Snow  
Snow 0.00 in - - ()
Month to date snowfall 0.0  
Since 1 July snowfall 0.0  
Snow Depth 0.00 in    
Sea Level Pressure  
Sea Level Pressure 30.01 in    
Wind  
Wind Speed 7 mph (SSW)    
Max Wind Speed 21 mph    
Max Gust Speed 24 mph    
Visibility 6 miles    
Events Fog , Rain , Thunderstorm    
T = Trace of Precipitation, MM = Missing Value Source: NWS Daily Summary

Daily Weather History Graph

Daily Weather History Graph

Search for Another Location

Airport:

Trip Planner

Search our weather history database for the weather conditions in past years. The results will help you decide how hot, cold, wet, or windy it might be!

Date:

Astronomy

Feb. 26, 2012 Rise Set
Actual Time 7:00 AM HST 6:39 PM HST
Civil Twilight 6:38 AM HST 7:02 PM HST
Nautical Twilight 6:12 AM HST 7:28 PM HST
Astronomical Twilight 5:46 AM HST 7:54 PM HST
Moon 9:45 AM HST (2/26) 11:02 PM HST (2/26)
Length of Visible Light 12h 24m
Length of Day
11h 39m
Waxing Crescent, 22% of the Moon is Illuminated
Feb 26
Waxing Crescent
Feb 29
First Quarter
Mar 7
Full
Mar 14
Last Quarter
Mar 22
New

Hourly Weather History & Observations

Time (HST) Temp. Dew Point Humidity Pressure Visibility Wind Dir Wind Speed Gust Speed Precip Events Conditions
12:53 AM 72.0 °F 69.1 °F 91% 30.00 in 9.0 mi East 11.5 mph - 0.01 in   Overcast
1:12 AM 71.6 °F 69.8 °F 94% 30.00 in 1.8 mi East 13.8 mph - 0.15 in Rain Heavy Rain
1:22 AM 71.6 °F 69.8 °F 94% 29.99 in 3.0 mi NE 5.8 mph - 0.34 in Rain Light Rain
1:29 AM 71.6 °F 69.8 °F 94% 30.00 in 9.0 mi ENE 8.1 mph - 0.34 in   Overcast
1:36 AM 71.6 °F 69.8 °F 94% 29.99 in 10.0 mi East 9.2 mph - 0.34 in Thunderstorm Thunderstorm
1:53 AM 73.0 °F 69.1 °F 87% 29.98 in 10.0 mi East 10.4 mph - 0.34 in Thunderstorm Thunderstorm
1:55 AM 73.4 °F 69.8 °F 88% 29.99 in 10.0 mi East 11.5 mph - N/A   Overcast
2:32 AM 73.4 °F 69.8 °F 88% 29.97 in 8.0 mi ESE 12.7 mph - 0.00 in Rain Rain
2:53 AM 71.6 °F 69.8 °F 94% 29.97 in 8.0 mi ESE 10.4 mph - N/A Rain Light Rain
3:13 AM 73.4 °F 68.0 °F 83% 29.97 in 10.0 mi ESE 9.2 mph - 0.00 in Rain , Thunderstorm Light Thunderstorms and Rain
3:53 AM 72.0 °F 70.0 °F 93% 29.97 in 3.0 mi Calm Calm - 0.13 in Rain , Thunderstorm Thunderstorms and Rain
4:31 AM 71.6 °F 69.8 °F 94% 29.96 in 4.0 mi Calm Calm - 0.11 in Rain , Thunderstorm Thunderstorms and Rain
4:40 AM 69.8 °F 68.0 °F 94% 29.97 in 2.5 mi South 11.5 mph 18.4 mph 0.19 in Rain , Thunderstorm Heavy Thunderstorms and Rain
4:45 AM 69.8 °F 66.2 °F 88% 29.98 in 2.0 mi South 12.7 mph - 0.26 in Rain , Thunderstorm Heavy Thunderstorms and Rain
4:53 AM 68.0 °F 66.9 °F 96% 29.96 in 2.5 mi SSW 6.9 mph - 0.38 in Rain , Thunderstorm Heavy Thunderstorms and Rain
5:08 AM 66.2 °F 66.2 °F 100% 29.98 in 2.0 mi SSW 12.7 mph - 0.09 in Rain , Thunderstorm Heavy Thunderstorms and Rain
5:15 AM 66.2 °F 66.2 °F 100% 29.99 in 1.0 mi South 8.1 mph - 0.42 in Rain , Thunderstorm Heavy Thunderstorms and Rain
5:30 AM 68.0 °F 66.2 °F 94% 29.98 in 2.5 mi West 4.6 mph - 0.64 in Rain , Thunderstorm Light Thunderstorms and Rain
5:36 AM 68.0 °F 66.2 °F 94% 29.98 in 6.0 mi Calm Calm - 0.64 in Thunderstorm Overcast
5:51 AM 68.0 °F 66.2 °F 94% 29.99 in 1.5 mi Calm Calm - 0.76 in Rain , Thunderstorm Heavy Thunderstorms and Rain
5:53 AM 68.0 °F 66.0 °F 93% 29.98 in 1.0 mi NW 4.6 mph - 0.83 in Rain , Thunderstorm Heavy Thunderstorms and Rain
5:57 AM 68.0 °F 66.2 °F 94% 29.99 in 0.8 mi West 6.9 mph - 0.15 in Thunderstorm Overcast
6:07 AM 68.0 °F 66.2 °F 94% 29.99 in 1.0 mi WNW 6.9 mph - 0.50 in Rain , Thunderstorm Heavy Thunderstorms and Rain
6:21 AM 68.0 °F 66.2 °F 94% 29.99 in 4.0 mi NW 4.6 mph - 0.85 in Rain , Thunderstorm Light Thunderstorms and Rain
6:29 AM 68.0 °F 66.2 °F 94% 30.00 in 8.0 mi Calm Calm - N/A Rain Rain
6:49 AM 68.0 °F 66.2 °F 94% 30.00 in 7.0 mi West 8.1 mph - 0.90 in Rain , Thunderstorm Thunderstorms and Rain
6:53 AM 68.0 °F 66.0 °F 93% 29.99 in 7.0 mi West 9.2 mph - 0.90 in Rain , Thunderstorm Light Thunderstorms and Rain
7:16 AM 68.0 °F 66.2 °F 94% 29.99 in 5.0 mi SSW 12.7 mph 20.7 mph 0.06 in Rain , Thunderstorm Heavy Thunderstorms and Rain
7:22 AM 68.0 °F 66.2 °F 94% 30.00 in 2.0 mi West 11.5 mph 23.0 mph 0.14 in Rain , Thunderstorm Heavy Thunderstorms and Rain
7:29 AM 66.2 °F 66.2 °F 100% 29.99 in 1.0 mi West 15.0 mph - 0.46 in Rain , Thunderstorm Heavy Thunderstorms and Rain
7:45 AM 66.2 °F 64.4 °F 94% 30.02 in 0.5 mi West 13.8 mph - 1.52 in Fog , Rain , Thunderstorm Heavy Thunderstorms and Rain
7:53 AM 66.0 °F 64.9 °F 96% 30.02 in 1.0 mi WNW 9.2 mph - 1.81 in Rain , Thunderstorm Heavy Thunderstorms and Rain
8:09 AM 66.2 °F 64.4 °F 94% 30.01 in 3.0 mi WNW 11.5 mph - 0.33 in Rain , Thunderstorm Heavy Thunderstorms and Rain
8:24 AM 66.2 °F 64.4 °F 94% 30.02 in 1.8 mi West 12.7 mph - 0.51 in Rain , Thunderstorm Heavy Thunderstorms and Rain
8:35 AM 66.2 °F 64.4 °F 94% 30.03 in 4.0 mi SW 13.8 mph - 0.73 in Rain , Thunderstorm Heavy Thunderstorms and Rain
8:53 AM 66.0 °F 64.0 °F 93% 30.04 in 2.5 mi SW 9.2 mph - 0.86 in Rain , Thunderstorm Heavy Thunderstorms and Rain
9:00 AM 66.2 °F 64.4 °F 94% 30.05 in 2.0 mi SSW 4.6 mph - 0.09 in Rain , Thunderstorm Heavy Thunderstorms and Rain
9:07 AM 66.2 °F 64.4 °F 94% 30.05 in 1.2 mi SW 3.5 mph - 0.23 in Rain , Thunderstorm Heavy Thunderstorms and Rain
9:18 AM 66.2 °F 64.4 °F 94% 30.06 in 3.0 mi Calm Calm - 0.30 in Rain , Thunderstorm Thunderstorms and Rain
9:53 AM 66.0 °F 64.0 °F 93% 30.05 in 5.0 mi West 5.8 mph - 0.35 in Rain , Thunderstorm Light Thunderstorms and Rain
10:17 AM 66.2 °F 64.4 °F 94% 30.07 in 5.0 mi West 6.9 mph - 0.05 in Rain , Thunderstorm Light Thunderstorms and Rain
10:53 AM 66.9 °F 64.9 °F 93% 30.05 in 7.0 mi Calm Calm - 0.15 in Rain , Thunderstorm Light Thunderstorms and Rain
11:53 AM 66.9 °F 66.9 °F 100% 30.05 in 8.0 mi Calm Calm - 0.12 in Rain Light Rain
12:00 PM 66.2 °F 64.4 °F 94% 30.06 in 5.0 mi West 4.6 mph - 0.01 in Rain Light Rain
12:30 PM 68.0 °F 66.2 °F 94% 30.03 in 3.0 mi ENE 4.6 mph - 0.09 in Rain , Thunderstorm Thunderstorms and Rain
12:53 PM 68.0 °F 66.0 °F 93% 30.03 in 4.0 mi East 8.1 mph - 0.18 in Rain , Thunderstorm Thunderstorms and Rain
1:28 PM 68.0 °F 64.4 °F 88% 30.03 in 5.0 mi East 11.5 mph - 0.13 in Rain Rain
1:44 PM 66.2 °F 64.4 °F 94% 30.01 in 4.0 mi ENE 15.0 mph - 0.19 in Rain , Thunderstorm Thunderstorms and Rain
1:53 PM 66.9 °F 64.9 °F 93% 29.99 in 4.0 mi East 18.4 mph - 0.22 in Rain , Thunderstorm Heavy Thunderstorms and Rain
2:00 PM 66.2 °F 64.4 °F 94% 29.97 in 6.0 mi ENE 19.6 mph - 0.01 in Rain , Thunderstorm Thunderstorms and Rain
2:53 PM 68.0 °F 64.0 °F 87% 29.99 in 10.0 mi ESE 6.9 mph - 0.06 in   Scattered Clouds
3:33 PM 68.0 °F 64.4 °F 88% 30.01 in 10.0 mi SE 11.5 mph - N/A   Partly Cloudy
3:53 PM 69.1 °F 64.0 °F 84% 30.00 in 10.0 mi ESE 10.4 mph - N/A   Partly Cloudy
4:53 PM 68.0 °F 64.0 °F 87% 30.02 in 9.0 mi East 9.2 mph - 0.01 in Rain Light Rain
5:53 PM 68.0 °F 64.0 °F 87% 30.04 in 10.0 mi ENE 15.0 mph - 0.01 in   Overcast
6:09 PM 68.0 °F 62.6 °F 83% 30.04 in 10.0 mi ENE 17.3 mph - N/A   Scattered Clouds
6:53 PM 68.0 °F 63.0 °F 84% 30.03 in 10.0 mi ENE 18.4 mph - N/A   Partly Cloudy
7:53 PM 69.1 °F 61.0 °F 75% 30.05 in 10.0 mi ENE 5.8 mph - N/A   Clear
8:53 PM 64.9 °F 63.0 °F 93% 30.05 in 10.0 mi WNW 5.8 mph - N/A   Clear
9:53 PM 64.9 °F 62.1 °F 90% 30.07 in 10.0 mi WNW 5.8 mph - N/A   Clear
10:53 PM 64.9 °F 62.1 °F 90% 30.07 in 10.0 mi WNW 4.6 mph - N/A   Scattered Clouds
11:06 PM 66.2 °F 62.6 °F 88% 30.08 in 10.0 mi WNW 4.6 mph - N/A   Mostly Cloudy
11:32 PM 66.2 °F 60.8 °F 83% 30.08 in 10.0 mi West 4.6 mph - N/A   Scattered Clouds
11:53 PM 66.0 °F 62.1 °F 87% 30.08 in 10.0 mi WNW 6.9 mph - N/A   Mostly Cloudy